Year,Month,Day,Hour,Minute,Value (Times are PST for temperature in C)
2017,07,07,08,30,18.10
2017,07,07,08,31,18.20
2017,07,07,08,32,18.30
2017,07,07,08,33,18.40
2017,07,07,08,34,18.50
2017,07,07,08,35,18.60
2017,07,07,08,36,18.60
2017,07,07,08,37,18.70
2017,07,07,08,38,18.70
2017,07,07,08,39,18.80
2017,07,07,08,40,18.90
2017,07,07,08,41,18.90
2017,07,07,08,42,18.90
2017,07,07,08,43,18.90
2017,07,07,08,44,19.00
2017,07,07,08,45,19.10
2017,07,07,08,46,19.10
2017,07,07,08,47,19.20
2017,07,07,08,48,19.30
2017,07,07,08,49,19.40
2017,07,07,08,50,19.50
2017,07,07,08,51,19.60
2017,07,07,08,52,19.70
2017,07,07,08,53,19.80
2017,07,07,08,54,19.90
2017,07,07,08,55,20.00
2017,07,07,08,56,20.20
2017,07,07,08,57,20.20
2017,07,07,08,58,20.30
2017,07,07,08,59,20.40
2017,07,07,09,00,20.40
2017,07,07,09,01,20.50
2017,07,07,09,02,20.50
2017,07,07,09,03,20.60
2017,07,07,09,04,20.70
2017,07,07,09,05,20.80
2017,07,07,09,06,20.80
2017,07,07,09,07,20.80
2017,07,07,09,08,20.70
2017,07,07,09,09,20.70
2017,07,07,09,10,20.60
2017,07,07,09,11,20.60
2017,07,07,09,12,20.50
2017,07,07,09,13,20.50
2017,07,07,09,14,20.50
2017,07,07,09,15,20.70
2017,07,07,09,16,20.70
2017,07,07,09,17,20.70
2017,07,07,09,18,20.70
2017,07,07,09,19,20.70
2017,07,07,09,20,20.70
2017,07,07,09,21,20.80
2017,07,07,09,22,20.90
2017,07,07,09,23,20.90
2017,07,07,09,24,20.90
2017,07,07,09,25,20.90
2017,07,07,09,26,20.80
2017,07,07,09,27,20.80
2017,07,07,09,28,20.80
2017,07,07,09,29,20.70
2017,07,07,09,30,20.50
2017,07,07,09,31,20.40
2017,07,07,09,32,20.40
2017,07,07,09,33,20.30
2017,07,07,09,34,20.30
2017,07,07,09,35,20.20
2017,07,07,09,36,20.20
2017,07,07,09,37,20.20
2017,07,07,09,38,20.30
2017,07,07,09,39,20.40
2017,07,07,09,40,20.50
2017,07,07,09,41,20.50
2017,07,07,09,42,20.40
2017,07,07,09,43,20.30
2017,07,07,09,44,20.30
2017,07,07,09,45,20.40
2017,07,07,09,46,20.40
2017,07,07,09,47,20.50
2017,07,07,09,48,20.50
2017,07,07,09,49,20.60
2017,07,07,09,50,20.60
2017,07,07,09,51,20.60
2017,07,07,09,52,20.50
2017,07,07,09,53,20.60
2017,07,07,09,54,20.60
2017,07,07,09,55,20.70
2017,07,07,09,56,20.70
2017,07,07,09,57,20.70
2017,07,07,09,58,20.60
2017,07,07,09,59,20.50
2017,07,07,10,00,20.50
2017,07,07,10,01,20.60
2017,07,07,10,02,20.60
2017,07,07,10,03,20.70
2017,07,07,10,04,20.70
2017,07,07,10,05,20.80
2017,07,07,10,06,20.80
2017,07,07,10,07,20.80
2017,07,07,10,08,20.80
2017,07,07,10,09,20.80
2017,07,07,10,10,20.80
2017,07,07,10,11,20.80
2017,07,07,10,12,20.80
2017,07,07,10,13,20.80
2017,07,07,10,14,20.80
2017,07,07,10,15,20.80
2017,07,07,10,16,20.90
2017,07,07,10,17,20.90
2017,07,07,10,18,20.90
2017,07,07,10,19,21.00
2017,07,07,10,20,21.10
2017,07,07,10,21,21.20
2017,07,07,10,22,21.20
2017,07,07,10,23,21.20
2017,07,07,10,24,21.20
2017,07,07,10,25,21.30
2017,07,07,10,26,21.30
2017,07,07,10,27,21.30
2017,07,07,10,28,21.30
2017,07,07,10,29,21.30
2017,07,07,10,30,21.10
2017,07,07,10,31,21.00
2017,07,07,10,32,20.80
2017,07,07,10,33,20.60
2017,07,07,10,34,20.60
2017,07,07,10,35,20.60
2017,07,07,10,36,20.60
2017,07,07,10,37,20.70
2017,07,07,10,38,20.70
2017,07,07,10,39,20.80
2017,07,07,10,40,20.80
2017,07,07,10,41,20.80
2017,07,07,10,42,20.80
2017,07,07,10,43,20.80
2017,07,07,10,44,20.70
2017,07,07,10,45,20.60
2017,07,07,10,46,20.50
2017,07,07,10,47,20.50
2017,07,07,10,48,20.50
2017,07,07,10,49,20.40
2017,07,07,10,50,20.30
2017,07,07,10,51,20.20
2017,07,07,10,52,20.20
2017,07,07,10,53,20.20
2017,07,07,10,54,20.20
2017,07,07,10,55,20.30
2017,07,07,10,56,20.40
2017,07,07,10,57,20.40
2017,07,07,10,58,20.50
2017,07,07,10,59,20.70
2017,07,07,11,00,20.80
2017,07,07,11,01,20.90
2017,07,07,11,02,21.00
2017,07,07,11,03,21.00
2017,07,07,11,04,21.10
2017,07,07,11,05,21.20
2017,07,07,11,06,21.30
2017,07,07,11,07,21.30
2017,07,07,11,08,21.40
2017,07,07,11,09,21.50
2017,07,07,11,10,21.60
2017,07,07,11,11,21.70
2017,07,07,11,12,21.80
2017,07,07,11,13,21.90
2017,07,07,11,14,22.00
2017,07,07,11,15,22.10
2017,07,07,11,16,22.10
2017,07,07,11,17,22.00
2017,07,07,11,18,22.00
2017,07,07,11,19,21.90
2017,07,07,11,20,21.80
2017,07,07,11,21,21.70
2017,07,07,11,22,21.70
2017,07,07,11,23,21.70
2017,07,07,11,24,21.80
2017,07,07,11,25,21.80
2017,07,07,11,26,21.80
2017,07,07,11,27,21.90
2017,07,07,11,28,22.00
2017,07,07,11,29,22.00
2017,07,07,11,30,22.10
2017,07,07,11,31,22.20
2017,07,07,11,32,22.20
2017,07,07,11,33,22.30
2017,07,07,11,34,22.30
2017,07,07,11,35,22.20
2017,07,07,11,36,22.20
2017,07,07,11,37,22.30
2017,07,07,11,38,22.30
2017,07,07,11,39,22.30
2017,07,07,11,40,22.40
2017,07,07,11,41,22.50
2017,07,07,11,42,22.60
2017,07,07,11,43,22.70
2017,07,07,11,44,22.70
2017,07,07,11,45,22.70
2017,07,07,11,46,22.70
2017,07,07,11,47,22.80
2017,07,07,11,48,22.90
2017,07,07,11,49,22.90
2017,07,07,11,50,23.00
2017,07,07,11,51,23.10
2017,07,07,11,52,23.10
2017,07,07,11,53,23.00
2017,07,07,11,54,22.90
2017,07,07,11,55,22.90
2017,07,07,11,56,22.80
2017,07,07,11,57,22.90
2017,07,07,11,58,22.90
2017,07,07,11,59,22.90
2017,07,07,12,00,22.80
2017,07,07,12,01,22.60
2017,07,07,12,02,22.60
2017,07,07,12,03,22.50
2017,07,07,12,04,22.40
2017,07,07,12,05,22.30
2017,07,07,12,06,22.30
2017,07,07,12,07,22.30
2017,07,07,12,08,22.40
2017,07,07,12,09,22.50
2017,07,07,12,10,22.40
2017,07,07,12,11,22.40
2017,07,07,12,12,22.40
2017,07,07,12,13,22.40
2017,07,07,12,14,22.50
2017,07,07,12,15,22.50
2017,07,07,12,16,22.60
2017,07,07,12,17,22.70
2017,07,07,12,18,22.70
2017,07,07,12,19,22.70
2017,07,07,12,20,22.80
2017,07,07,12,21,22.80
2017,07,07,12,22,22.70
2017,07,07,12,23,22.60
2017,07,07,12,24,22.60
2017,07,07,12,25,22.60
2017,07,07,12,26,22.70
2017,07,07,12,27,22.70
2017,07,07,12,28,22.70
2017,07,07,12,29,22.70
2017,07,07,12,30,22.60
2017,07,07,12,31,22.50
2017,07,07,12,32,22.60
2017,07,07,12,33,22.60
2017,07,07,12,34,22.60
2017,07,07,12,35,22.60
2017,07,07,12,36,22.60
2017,07,07,12,37,22.60
2017,07,07,12,38,22.70
2017,07,07,12,39,22.70
2017,07,07,12,40,22.90
2017,07,07,12,41,22.90
2017,07,07,12,42,23.10
2017,07,07,12,43,23.20
2017,07,07,12,44,23.10
2017,07,07,12,45,23.00
2017,07,07,12,46,22.90
2017,07,07,12,47,22.80
2017,07,07,12,48,22.80
2017,07,07,12,49,22.80
2017,07,07,12,50,22.80
2017,07,07,12,51,22.70
2017,07,07,12,52,22.60
2017,07,07,12,53,22.60
2017,07,07,12,54,22.70
2017,07,07,12,55,22.60
2017,07,07,12,56,22.60
2017,07,07,12,57,22.70
2017,07,07,12,58,22.70
2017,07,07,12,59,22.70
2017,07,07,13,00,22.70
2017,07,07,13,01,22.70
2017,07,07,13,02,22.70
2017,07,07,13,03,22.70
2017,07,07,13,04,22.80
2017,07,07,13,05,22.80
2017,07,07,13,06,22.70
2017,07,07,13,07,22.70
2017,07,07,13,08,22.80
2017,07,07,13,09,22.80
2017,07,07,13,10,22.70
2017,07,07,13,11,22.70
2017,07,07,13,12,22.70
2017,07,07,13,13,22.70
2017,07,07,13,14,22.70
2017,07,07,13,15,22.80
2017,07,07,13,16,22.70
2017,07,07,13,17,22.70
2017,07,07,13,18,22.70
2017,07,07,13,19,22.70
2017,07,07,13,20,22.70
2017,07,07,13,21,22.80
2017,07,07,13,22,22.90
2017,07,07,13,23,22.90
2017,07,07,13,24,22.90
2017,07,07,13,25,22.90
2017,07,07,13,26,22.90
2017,07,07,13,27,22.70
2017,07,07,13,28,22.60
2017,07,07,13,29,22.60
2017,07,07,13,30,22.60
2017,07,07,13,31,22.50
2017,07,07,13,32,22.50
2017,07,07,13,33,22.50
2017,07,07,13,34,22.50
2017,07,07,13,35,22.50
2017,07,07,13,36,22.50
2017,07,07,13,37,22.70
2017,07,07,13,38,22.70
2017,07,07,13,39,22.70
2017,07,07,13,40,22.60
2017,07,07,13,41,22.60
2017,07,07,13,42,22.60
2017,07,07,13,43,22.50
2017,07,07,13,44,22.50
2017,07,07,13,45,22.50
2017,07,07,13,46,22.60
2017,07,07,13,47,22.60
2017,07,07,13,48,22.60
2017,07,07,13,49,22.50
2017,07,07,13,50,22.50
2017,07,07,13,51,22.50
2017,07,07,13,52,22.60
2017,07,07,13,53,22.70
2017,07,07,13,54,22.90
2017,07,07,13,55,23.00
2017,07,07,13,56,23.10
2017,07,07,13,57,23.20
2017,07,07,13,58,23.20
2017,07,07,13,59,23.10
2017,07,07,14,00,22.90
2017,07,07,14,01,22.80
2017,07,07,14,02,22.80
2017,07,07,14,03,22.80
2017,07,07,14,04,22.90
2017,07,07,14,05,22.90
2017,07,07,14,06,22.90
2017,07,07,14,07,22.90
2017,07,07,14,08,22.90
2017,07,07,14,09,22.90
2017,07,07,14,10,22.90
2017,07,07,14,11,22.90
2017,07,07,14,12,22.90
2017,07,07,14,13,23.00
2017,07,07,14,14,23.10
2017,07,07,14,15,23.20
2017,07,07,14,16,23.20
2017,07,07,14,17,23.20
2017,07,07,14,18,23.20
2017,07,07,14,19,23.10
2017,07,07,14,20,23.00
2017,07,07,14,21,22.90
2017,07,07,14,22,22.90
2017,07,07,14,23,22.90
2017,07,07,14,24,22.80
2017,07,07,14,25,22.90
2017,07,07,14,26,22.90
2017,07,07,14,27,22.90
2017,07,07,14,28,22.90
2017,07,07,14,29,22.90
2017,07,07,14,30,23.00
2017,07,07,14,31,23.10
2017,07,07,14,32,23.20
2017,07,07,14,33,23.30
2017,07,07,14,34,23.30
2017,07,07,14,35,23.30
2017,07,07,14,36,23.30
2017,07,07,14,37,23.30
2017,07,07,14,38,23.20
2017,07,07,14,39,23.30
2017,07,07,14,40,23.30
2017,07,07,14,41,23.30
2017,07,07,14,42,23.30
2017,07,07,14,43,23.30
2017,07,07,14,44,23.30
2017,07,07,14,45,23.20
2017,07,07,14,46,23.10
2017,07,07,14,47,23.10
2017,07,07,14,48,23.10
2017,07,07,14,49,23.20
2017,07,07,14,50,23.30
2017,07,07,14,51,23.30
2017,07,07,14,52,23.30
2017,07,07,14,53,23.30
2017,07,07,14,54,23.40
2017,07,07,14,55,23.40
2017,07,07,14,56,23.40
2017,07,07,14,57,23.40
2017,07,07,14,58,23.40
2017,07,07,14,59,23.40
2017,07,07,15,00,23.30
2017,07,07,15,01,23.30
2017,07,07,15,02,23.40
2017,07,07,15,03,23.40
2017,07,07,15,04,23.40
2017,07,07,15,05,23.40
2017,07,07,15,06,23.40
2017,07,07,15,07,23.50
2017,07,07,15,08,23.60
2017,07,07,15,09,23.60
2017,07,07,15,10,23.60
2017,07,07,15,11,23.60
2017,07,07,15,12,23.70
2017,07,07,15,13,23.70
2017,07,07,15,14,23.70
2017,07,07,15,15,23.80
2017,07,07,15,16,23.80
2017,07,07,15,17,23.70
2017,07,07,15,18,23.50
2017,07,07,15,19,23.40
2017,07,07,15,20,23.40
2017,07,07,15,21,23.40
2017,07,07,15,22,23.40
2017,07,07,15,23,23.40
2017,07,07,15,24,23.30
2017,07,07,15,25,23.30
2017,07,07,15,26,23.30
2017,07,07,15,27,23.30
2017,07,07,15,28,23.30
2017,07,07,15,29,23.40
2017,07,07,15,30,23.40
2017,07,07,15,31,23.30
2017,07,07,15,32,23.30
2017,07,07,15,33,23.30
2017,07,07,15,34,23.30
2017,07,07,15,35,23.30
2017,07,07,15,36,23.40
2017,07,07,15,37,23.40
2017,07,07,15,38,23.40
2017,07,07,15,39,23.50
2017,07,07,15,40,23.40
2017,07,07,15,41,23.40
2017,07,07,15,42,23.30
2017,07,07,15,43,23.30
2017,07,07,15,44,23.30
2017,07,07,15,45,23.30
2017,07,07,15,46,23.30
2017,07,07,15,47,23.40
2017,07,07,15,48,23.50
2017,07,07,15,49,23.70
2017,07,07,15,50,23.80
2017,07,07,15,51,23.90
2017,07,07,15,52,23.90
2017,07,07,15,53,23.90
2017,07,07,15,54,23.90
2017,07,07,15,55,23.80
2017,07,07,15,56,23.80
2017,07,07,15,57,23.80
2017,07,07,15,58,23.80
2017,07,07,15,59,23.90
2017,07,07,16,00,23.90
2017,07,07,16,01,23.90
2017,07,07,16,02,23.90
2017,07,07,16,03,23.90
2017,07,07,16,04,23.80
2017,07,07,16,05,23.80
2017,07,07,16,06,23.70
2017,07,07,16,07,23.70
2017,07,07,16,08,23.60
2017,07,07,16,09,23.60
2017,07,07,16,10,23.60
2017,07,07,16,11,23.50
2017,07,07,16,12,23.40
2017,07,07,16,13,23.40
2017,07,07,16,14,23.30
2017,07,07,16,15,23.30
2017,07,07,16,16,23.20
2017,07,07,16,17,23.10
2017,07,07,16,18,23.00
2017,07,07,16,19,22.90
2017,07,07,16,20,22.90
2017,07,07,16,21,22.90
2017,07,07,16,22,22.90
2017,07,07,16,23,22.90
2017,07,07,16,24,22.90
2017,07,07,16,25,22.80
2017,07,07,16,26,22.70
2017,07,07,16,27,22.70
2017,07,07,16,28,22.70
2017,07,07,16,29,22.60
2017,07,07,16,30,22.60
2017,07,07,16,31,22.60
2017,07,07,16,32,22.60
2017,07,07,16,33,22.50
2017,07,07,16,34,22.50
2017,07,07,16,35,22.50
2017,07,07,16,36,22.50
2017,07,07,16,37,22.40
2017,07,07,16,38,22.40
2017,07,07,16,39,22.40
2017,07,07,16,40,22.40
2017,07,07,16,41,22.40
2017,07,07,16,42,22.40
2017,07,07,16,43,22.40
2017,07,07,16,44,22.40
2017,07,07,16,45,22.40
2017,07,07,16,46,22.30
2017,07,07,16,47,22.30
2017,07,07,16,48,22.30
2017,07,07,16,49,22.30
2017,07,07,16,50,22.30
2017,07,07,16,51,22.20
2017,07,07,16,52,22.20
2017,07,07,16,53,22.20
2017,07,07,16,54,22.20
2017,07,07,16,55,22.20
2017,07,07,16,56,22.20
2017,07,07,16,57,22.20
2017,07,07,16,58,22.20
2017,07,07,16,59,22.20
2017,07,07,17,00,22.20
2017,07,07,17,01,22.10
2017,07,07,17,02,22.10
2017,07,07,17,03,22.10
2017,07,07,17,04,22.00
2017,07,07,17,05,22.00
2017,07,07,17,06,22.00
2017,07,07,17,07,22.00
2017,07,07,17,08,22.00
2017,07,07,17,09,22.00
2017,07,07,17,10,22.00
2017,07,07,17,11,22.00
2017,07,07,17,12,22.00
2017,07,07,17,13,22.00
2017,07,07,17,14,22.00
